Regional Weather Roundup
Issued by NWS

Home | Current Version | Previous Version | Graphics & Text | Print | Product List | Glossary Off
Versions: 1 2 3 4 5 6 7 8 9 10 11 12 13 14 15 16 17 18 19 20 21 22 23 24 25 26 27 28 29 30 31 32 33 34 35 36 37 38 39 40 41 42 43 44 45 46 47 48 49 50

000
ASUS43 KMKX 202311
RWRWI

WISCONSIN REGIONAL WEATHER ROUNDUP
NATIONAL WEATHER SERVICE MILWAUKEE/SULLIVAN WI
600 PM CDT WED AUG 20 2014

NOTE: "FAIR" INDICATES FEW OR NO CLOUDS BELOW 12,000 FEET WITH NO
SIGNIFICANT WEATHER AND/OR OBSTRUCTIONS TO VISIBILITY.

WIZ001-002-006>008-014>016-023>028-210000-
NORTHWEST WISCONSIN

CITY           SKY/WX    TMP DP  RH WIND       PRES   REMARKS
SUPERIOR ARPT  CLOUDY    67  61  80 E6        29.91S
ASHLAND        CLOUDY    69  61  75 NE6       29.94R
HAYWARD        CLOUDY    70  62  76 CALM      29.93S
SIREN          MOSUNNY   74  61  63 E6        29.89F
RICE LAKE      MOSUNNY   73  62  68 N5        29.91F
LADYSMITH      CLOUDY    73  60  63 CALM      29.93S
EAU CLAIRE     PTSUNNY   77  64  64 NE7       29.87F
MENOMONIE      MOCLDY    78  62  57 NE8       29.87F
NEW RICHMOND   PTSUNNY   76  64  67 E5        29.88S
OSCEOLA        PTSUNNY   78  64  63 E7        29.89F
$$

WIZ003>005-009-010-017-018-210000-
NORTH CENTRAL WISCONSIN

CITY           SKY/WX    TMP DP  RH WIND       PRES   REMARKS
WOODRUFF       CLOUDY    69  61  75 NW3       29.94S
RHINELANDER    CLOUDY    68  59  73 W5        29.95R
EAGLE RIVER    CLOUDY    66  58  76 N3        29.94R
LAND O LAKES   CLOUDY    66  60  80 NW3       29.95S
PHILLIPS       CLOUDY    68  61  77 NE5       29.93S
TOMAHAWK       CLOUDY    68  60  75 CALM      29.94S
MEDFORD        CLOUDY    71  61  71 CALM      29.93S
MERRILL        CLOUDY    71  62  74 CALM      29.93S
$$

WIZ029-030-035-036-043>047-210000-
CENTRAL WISCONSIN

CITY           SKY/WX    TMP DP  RH WIND       PRES   REMARKS
WAUSAU         CLOUDY    74  60  61 N5        29.90F
MOSINEE        PTSUNNY   73  63  68 VRB5      29.92F
MARSHFIELD     SUNNY     76  62  62 CALM      29.91S
STEVENS POINT  SUNNY     72  60  65 N5        29.91S
WAUPACA        SUNNY     78  63  59 CALM      29.90S HX  80
WAUTOMA        MOSUNNY   79  65  62 N5        29.89S HX  81
WISC RAPIDS    SUNNY     76  63  64 N7        29.91S
CAMP DOUGLAS   PTSUNNY   79  72  78 N3        29.88S HX  82
$$

WIZ011>013-019>022-031-037>040-048>050-210000-
NORTHEAST WISCONSIN

CITY           SKY/WX    TMP DP  RH WIND       PRES   REMARKS
ANTIGO         CLOUDY    70  62  75 NW6       29.94R
STURGEON BAY   PTSUNNY   72  61  68 NW7       29.91S
GREEN BAY      SUNNY     75  63  66 VRB5      29.91R
MANITOWOC      SUNNY     69  64  84 S7        29.92R
APPLETON       NOT AVBL
CLINTONVILLE   SUNNY     73  59  60 NW5       29.90S
OSHKOSH        SUNNY     75  65  70 NE7       29.89S
$$

WIZ032>034-041-042-053>061-210000-
SOUTHWEST WISCONSIN

CITY           SKY/WX    TMP DP  RH WIND       PRES   REMARKS
LA CROSSE      CLOUDY    83  66  56 MISG      29.86R HX  85
SPARTA         CLOUDY    79  64  59 N3        29.87F HX  81
VIROQUA        FAIR      79  68  68 CALM      29.90R HX  81
BOSCOBEL       CLOUDY    84  69  60 W5        29.87R HX  88
PRAIRIE DU CHI CLOUDY    81  65  58 S3        29.87R HX  83
PLATTEVILLE    FAIR      80  66  62 CALM      29.89F HX  82
$$

WIZ056-057-062-063-064-067-068-210000-
SOUTH CENTRAL WISCONSIN

CITY           SKY/WX    TMP DP  RH WIND       PRES   REMARKS
BARABOO/DELLS  PTSUNNY   82  61  49 CALM      29.88R HX  82
LONE ROCK      CLOUDY    87  66  49 CALM      29.87R HX  89
WATERTOWN      SUNNY     80  66  61 CALM      29.87R HX  82
MADISON        CLOUDY    82  65  56 SW6       29.88R HX  84
MIDDLETON      FAIR      83  64  53 W3        29.89R HX  85
MONROE         MOSUNNY   81  64  57 SW8       29.90S HX  82
JANESVILLE     PTSUNNY   84  63  48 SW8       29.88R HX  85
$$

WIZ051-052-058>065-066-070>072-210000-
SOUTHEAST WISCONSIN

CITY           SKY/WX    TMP DP  RH WIND       PRES   REMARKS
MILWAUKEE      PTSUNNY   73  65  75 E9        29.88R
WAUKESHA       PTSUNNY   77  64  65 E7        29.89R
MILWAUKEE/TIMM SUNNY     77  61  57 E6        29.89R
RACINE         MOSUNNY   73  67  81 E9        29.90R
BURLINGTON     MOSUNNY   78  67  69 W3        29.89R HX  80
KENOSHA        MOSUNNY   81  68  64 W6        29.88R HX  84
FOND DU LAC    SUNNY     76  64  66 NE12      29.89S
SHEBOYGAN      MOSUNNY   72  63  73 SE5       29.91R
WEST BEND      SUNNY     73  63  68 SE6       29.90R
JUNEAU         SUNNY     80  42  26 N5        29.89S
$$

LSZ147-162-210000-
LAKE SUPERIOR

STATION/POSITION TIME  TEMP    WIND        PRES    WAVE
                       AIR SEA DIR/SP/G            HT/PER
                 (UTC) (F)     (DEG/KT/KT) (MB)    (FT/S)
W MID LAKE BUOY  2250   59 59  110/  2/  2 1013.5R   0
DEVILS ISLAND    2300   65      80/  8/  8 1013.3S
PORT WING        2200   69      50/  4/  6 1013.2S
SAXON HARBOR     2200   67      50/  6/  7 1013.2F
$$

LMZ867-665-643>646-210000-
LAKE MICHIGAN

STATION/POSITION TIME  TEMP    WIND        PRES    WAVE
                       AIR SEA DIR/SP/G            HT/PER
                 (UTC) (F)     (DEG/KT/KT) (MB)    (FT/S)
N MID LAKE BUOY  2250   63 63  210/  8/  8 1012.3R   1
NORTHPORT PIER   2200   65     160/  6/  9 1012.5R
SISTER BAY       2211          300/  6/  7   N/A
KEWAUNEE LAKESHO 2200   67      90/  3/  5 1011.7R
SHEBOYGAN LAKESH 2300   67 66  150/  3/  4 1012.9R
ATWATER BUOY     2300   70     110/  6/  8 1013.1R
MILWAUKEE LAKESH 2200   70     110/  7/  9   N/A
S MID LAKE BUOY  2250   70 69   80/  8/  8 1011.7S   0
KENOSHA   LAKESH 2300   74     150/  3/  6 1011.2R
$$

TC  - TEMPERATURE IN CELSIUS
VSB - VISIBILITY IN STATUTE MILES
WCI - WIND CHILL INDEX
HX  - HEAT INDEX



USA.gov is the U.S. government's official web portal to all federal, state and local government web resources and services.